Regional Weather Roundup
Issued by NWS

Home | Current Version | Previous Version | Text Only | Print | Product List | Glossary On
Versions: 1 2 3 4 5 6 7 8 9 10 11 12 13 14 15 16 17 18 19 20 21 22 23 24 25 26 27 28 29 30 31 32 33 34 35 36 37 38 39 40 41 42 43 44 45 46 47 48 49 50
821
ASUS43 KMPX 301910
RWRMN
WEATHER ROUNDUP FOR MINNESOTA
NATIONAL WEATHER SERVICE TWIN CITIES/CHANHASSEN MN
200 PM CDT MON MAY 30 2016


NOTE: "FAIR" INDICATES FEW OR NO CLOUDS BELOW 12,000 FEET WITH NO
SIGNIFICANT WEATHER AND/OR OBSTRUCTIONS TO VISIBILITY. N/A MEANS
CURRENT SKY AND/OR WEATHER CONDITIONS ARE NOT AVAILABLE.

MNZ060>063-068>070-302000-
   Twin Cities Metro

CITY           SKY/WX    TMP DP  RH WIND       PRES   REMARKS
TWIN CITIES    CLOUDY    81  49  32 SW5       29.98F
ST PAUL        MOSUNNY   81  52  36 SE3       29.97F
CRYSTAL        MOSUNNY   80  49  33 VRB7      29.96F
BLAINE         PTSUNNY   82  52  34 SW7       29.98F
EDEN PRAIRIE   CLOUDY    82  52  35 S7        29.97F
SOUTH ST PAUL  SUNNY     80  49  33 CALM      29.98F
LAKE ELMO      FAIR      81  55  41 S10       30.00S
$$
MNZ001>005-007-008-013>017-022>024-027-028-302000-
   Northwest Minnesota

CITY           SKY/WX    TMP DP  RH WIND       PRES   REMARKS
BEMIDJI        PTSUNNY   77  45  31 E7        29.93F
HALLOCK        SUNNY     79  45  29 S3        29.87F
ROSEAU         SUNNY     75  52  43 S5        29.92S
WARROAD        SUNNY     66  57  72 NE12      29.94F
THIEF RVR FALL SUNNY     75  48  38 SE7       29.92F
CROOKSTON      PTSUNNY   77  55  47 E8        29.89F
FOSSTON        SUNNY     79  55  44 S6        29.93S
DETROIT LAKES  SUNNY     79  48  34 CALM      29.93F
MOORHEAD       SUNNY     82  48  30 S7        29.88F
PARK RAPIDS    MOSUNNY   81  51  35 SW7       29.93F
MAHNOMEN       FAIR      78  53  42 CALM      29.91F
$$
MNZ006-009>011-018-025>026-302000-
   North Central Minnesota

CITY           SKY/WX    TMP DP  RH WIND       PRES   REMARKS
BAUDETTE       SUNNY     77  47  34 N6        29.93F
FLAG ISLAND    MOSUNNY   66  52  59 NE5       29.94S
INTL FALLS     PTSUNNY   74  52  46 VRB3      29.95S
WASKISH        MOSUNNY   77  45  31 W8        29.94F
BIG FORK       SUNNY     79  39  24 W7        29.95F
LONGVILLE      SUNNY     75  46  35 CALM      29.95F
CRANE LAKE     SUNNY     72  50  46 N5        29.97F
ORR            MOSUNNY   75  39  27 CALM      29.93F
COOK           MOSUNNY   75  46  35 NW7G21    29.96S
WALKER         FAIR      76  47  35 SE5       29.93F
$$
MNZ012-019>021-037-302000-
   Northeast Minnesota

CITY           SKY/WX    TMP DP  RH WIND       PRES   REMARKS
DULUTH         MOSUNNY   78  44  29 N6        29.96F
ELY            MOSUNNY   72  45  37 N6G17     29.96S
HIBBING        PTSUNNY   73  43  33 VRB5      29.96S
EVELETH        PTSUNNY   73  41  31 W7        29.98S
DULUTH HARBOR  MOSUNNY   73  52  46 E6        29.94F
TWO HARBORS      N/A     79  52  38 W3        29.93F
SILVER BAY     MOSUNNY   79  43  27 W6        29.94S
GRAND MARAIS     N/A     78  47  33 W8G17     29.91S
G MARAIS ARPRT MOSUNNY   72  46  40 W14G21    29.97R
$$
MNZ029>031-032-039>041-046>048-054>057-064-302000-
   West Central Minnesota

CITY           SKY/WX    TMP DP  RH WIND       PRES   REMARKS
FERGUS FALLS   MOSUNNY   81  50  34 SE10G20   29.86F
WHEATON        SUNNY     86  52  30 SE10G20   29.89F
MORRIS         MOSUNNY   81  55  41 S15G22    29.90F
ALEXANDRIA     SUNNY     81  49  32 S13G22    29.95F
ELBOW LAKE     FAIR      80  50  34 SE8G23    29.91F
WADENA         MOSUNNY   79  48  34 S6        29.93F
GLENWOOD       SUNNY     79  52  38 S18       29.96S
APPLETON       MOSUNNY   84  46  26 S7G16     29.89F
BENSON         MOSUNNY   82  48  30 SW7G17    29.91F
ORTONVILLE     MOSUNNY   81  52  36 S12       29.90S
MADISON        SUNNY     84  48  28 S16G24    29.89F
WILLMAR        FAIR      82  52  34 S6G17     29.95F
$$
MNZ033>034-036-042>043-049>051-058-059-302000-
   Central Minnesota

CITY           SKY/WX    TMP DP  RH WIND       PRES   REMARKS
ST CLOUD       SUNNY     82  49  31 S15       29.96F
SAUK CENTRE    FAIR      79  52  39 S14       29.95F
PAYNESVILLE    MOSUNNY   79  50  36 S10G17    29.97F
AITKIN         SUNNY     82  41  23 SW8       29.94F
PINE RIVER     PTSUNNY   79  54  41 S5        29.97F
BRAINERD       SUNNY     79  49  34 VRB3      29.95F
STAPLES        MOSUNNY   79  46  31 S6        29.94F
LONG PRAIRIE   PTSUNNY   77  52  41 SE12      29.95F
LITTLE FALLS   SUNNY     79  45  29 SW8       29.95F
LITCHFIELD     SUNNY     81  55  41 SE12      29.97F
BUFFALO        MOSUNNY   78  51  37 S9        29.98F
MAPLE LAKE     PTSUNNY   80  57  45 S6        29.98F
HUTCHINSON     SUNNY     80  55  43 S8        29.97F
$$
MNZ037-044-045-052-053-302000-
   East Central Minnesota

CITY           SKY/WX    TMP DP  RH WIND       PRES   REMARKS
PRINCETON      SUNNY     82  50  32 S8        29.97S
MORA           SUNNY     77  46  33 W8        29.98F
CAMBRIDGE        N/A     82  57  42 S7        29.96S
RUSH CITY      SUNNY     80  50  35 S7        29.96F
MOOSE LAKE     MOSUNNY   81  48  32 W5        29.94F
HINCKLEY       FAIR      79  52  38 CALM      29.96F
CLOQUET        PTSUNNY   77  39  25 W8G17     29.96S
MCGREGOR       SUNNY     77  46  33 W3        29.96F
$$
MNZ071>073-080-081-089-090-097-098-302000-
   Southwest Minnesota

CITY           SKY/WX    TMP DP  RH WIND       PRES   REMARKS
MONTEVIDEO     SUNNY     84  52  32 SW14      29.92F
GRANITE FALLS  SUNNY     85  53  33 S16G22    29.93F
CANBY          SUNNY     85  56  37 S8G17     29.91F
MARSHALL       SUNNY     81  54  39 S21       29.92F
REDWOOD FALLS  SUNNY     83  52  34 SW12      29.93F
OLIVIA         SUNNY     81  52  36 S9        29.94F
PIPESTONE      CLOUDY    77  57  50 S16       29.93F
WINDOM         SUNNY     81  54  39 S6G18     29.97F
WORTHINGTON    MOSUNNY   79  57  46 SE17G23   29.95F
JACKSON        SUNNY     79  50  36 S13G18    29.98F
TRACY          SUNNY     80  55  41 S14G20    29.94F
SLAYTON        MOSUNNY   79  52  39 SE22      29.96F
$$
MNZ065>067-074>077-082>085-091>093-302000-
   South Central Minnesota

CITY           SKY/WX    TMP DP  RH WIND       PRES   REMARKS
MANKATO        SUNNY     81  46  30 S9G17     29.97F
NEW ULM        SUNNY     81  52  36 S12       29.95F
ST JAMES       SUNNY     77  48  36 S16       29.97F
FAIRMONT       SUNNY     79  54  41 S20       29.97F
GLENCOE        SUNNY     82  56  40 SE7       29.97F
FARIBAULT      SUNNY     81  52  36 SE7       29.99F
OWATONNA       SUNNY     81  46  30 SE7G16    29.99F
WASECA         SUNNY     79  46  31 SE9G18    30.00F
ALBERT LEA     SUNNY     81  48  32 S13       30.00S
$$
MNZ078>079-086>088-094>096-302000-
   Southeast Minnesota

CITY           SKY/WX    TMP DP  RH WIND       PRES   REMARKS
ROCHESTER      SUNNY     79  53  40 SE13      30.01F
RED WING       SUNNY     82  46  28 SE7       29.97F
STANTON        MOSUNNY   81  49  31 S9        29.97F
DODGE CENTER   SUNNY     81  46  30 SE13      30.01S
WINONA         SUNNY     81  46  30 NW5       30.00S
AUSTIN         SUNNY     79  48  34 SE8G16    30.00S
PRESTON        SUNNY     78  47  33 S6        30.02F
$$
ABBREVIATIONS USED IN REMARKS
   TC - TEMPERATURES IN CELSIUS
  WCI - WIND CHILL INDEX
   HX - HEAT INDEX
  VSB - VISIBILITY
$$




USA.gov is the U.S. government's official web portal to all federal, state and local government web resources and services.